CCM26G LFKJ-EBCI

Flight info

Callsign CCM26G
Flight time 1h 35m
Altitude 34000
Route LONSU DCT NOSTA DCT CERVI DCT DEVDI DCT SUTAL N852 GESLO/N0430F280 N852 LNO
Aircraft A20N/M-SDE2E3FGHIRWXY/LB1

Departure

Time 2026-05-07 12:20
Airport Ajaccio Napoléon Bonaparte airport (LFKJ)

Arrival

Time 2026-05-07 13:55
Airport Brussels South Charleroi Airport (EBCI)
Time Latitude Longitude Altitude Speed Heading
2026-05-07 11:58 41.91758 8.79433 36 ft 0 kts 345°
2026-05-07 12:13 41.91759 8.79433 36 ft 0 kts 349°
2026-05-07 12:13 41.91760 8.79433 36 ft 0 kts 351°
2026-05-07 12:13 41.91768 8.79435 36 ft 1 kts 17°
2026-05-07 12:14 41.91779 8.79453 36 ft 3 kts 78°
2026-05-07 12:14 41.91777 8.79471 36 ft 0 kts 111°
2026-05-07 12:15 41.91776 8.79474 36 ft 0 kts 111°
2026-05-07 12:15 41.91772 8.79493 35 ft 3 kts 100°
2026-05-07 12:15 41.91777 8.79531 35 ft 5 kts 54°
2026-05-07 12:16 41.91816 8.79560 36 ft 7 kts 25°
2026-05-07 12:16 41.91874 8.79595 35 ft 10 kts 24°
2026-05-07 12:16 41.91949 8.79641 35 ft 13 kts 25°
2026-05-07 12:16 41.92039 8.79697 35 ft 15 kts 25°
2026-05-07 12:17 41.92145 8.79762 35 ft 17 kts 24°
2026-05-07 12:17 41.92265 8.79835 36 ft 20 kts 25°
2026-05-07 12:17 41.92396 8.79918 36 ft 21 kts 26°
2026-05-07 12:17 41.92530 8.80005 36 ft 20 kts 25°
2026-05-07 12:18 41.92661 8.80086 37 ft 20 kts 25°
2026-05-07 12:18 41.92782 8.80179 38 ft 19 kts 39°
2026-05-07 12:18 41.92881 8.80304 39 ft 19 kts 46°
2026-05-07 12:18 41.92958 8.80445 40 ft 18 kts 84°
2026-05-07 12:19 41.92886 8.80553 40 ft 18 kts 193°
2026-05-07 12:19 41.92770 8.80485 39 ft 18 kts 206°
2026-05-07 12:19 41.92487 8.80307 37 ft 82 kts 205°
2026-05-07 12:19 41.91756 8.79850 36 ft 148 kts 205°
2026-05-07 12:20 41.90693 8.79208 371 ft 176 kts 204°
2026-05-07 12:20 41.89658 8.78390 1122 ft 177 kts 230°
2026-05-07 12:20 41.89093 8.76976 1870 ft 173 kts 248°
2026-05-07 12:20 41.88562 8.75486 2344 ft 188 kts 245°
2026-05-07 12:21 41.87930 8.73865 2790 ft 205 kts 244°
2026-05-07 12:21 41.87220 8.72114 3245 ft 222 kts 243°
2026-05-07 12:21 41.86443 8.70231 3649 ft 244 kts 242°
2026-05-07 12:21 41.85595 8.68191 4188 ft 260 kts 242°
2026-05-07 12:22 41.84694 8.66029 4896 ft 269 kts 242°
2026-05-07 12:22 41.83862 8.63790 5764 ft 272 kts 255°
2026-05-07 12:22 41.83757 8.61324 6613 ft 273 kts 282°
2026-05-07 12:22 41.84513 8.59036 7468 ft 276 kts 308°
2026-05-07 12:23 41.85983 8.57394 8269 ft 281 kts 332°
2026-05-07 12:23 41.87773 8.56337 9059 ft 285 kts 336°
2026-05-07 12:23 41.89601 8.55288 9820 ft 290 kts 335°
2026-05-07 12:23 41.91454 8.54217 10491 ft 296 kts 335°
2026-05-07 12:24 41.93407 8.53075 10924 ft 313 kts 334°
2026-05-07 12:24 41.95444 8.51872 11303 ft 331 kts 334°
2026-05-07 12:24 41.97609 8.50591 11618 ft 349 kts 334°
2026-05-07 12:24 41.99861 8.49257 12147 ft 359 kts 334°
2026-05-07 12:25 42.02156 8.47898 12877 ft 363 kts 334°
2026-05-07 12:25 42.04469 8.46527 13609 ft 365 kts 334°
2026-05-07 12:25 42.06804 8.45141 14282 ft 369 kts 334°
2026-05-07 12:25 42.09135 8.43754 14914 ft 373 kts 334°
2026-05-07 12:26 42.11525 8.42331 15512 ft 376 kts 333°
2026-05-07 12:26 42.13932 8.40897 16223 ft 380 kts 333°
2026-05-07 12:26 42.16330 8.39466 16807 ft 384 kts 333°
2026-05-07 12:26 42.18798 8.37991 17418 ft 388 kts 333°
2026-05-07 12:27 42.21239 8.36533 18037 ft 391 kts 333°
2026-05-07 12:27 42.23759 8.35024 18626 ft 394 kts 333°
2026-05-07 12:27 42.26244 8.33539 19203 ft 396 kts 332°
2026-05-07 12:27 42.28757 8.32035 19785 ft 399 kts 332°
2026-05-07 12:28 42.31300 8.30510 20342 ft 402 kts 332°
2026-05-07 12:28 42.33878 8.28964 20894 ft 405 kts 331°
2026-05-07 12:28 42.36457 8.27412 21447 ft 408 kts 331°
2026-05-07 12:28 42.39030 8.25864 21983 ft 410 kts 331°
2026-05-07 12:29 42.41651 8.24286 22482 ft 413 kts 331°
2026-05-07 12:29 42.44292 8.22696 22990 ft 416 kts 330°
2026-05-07 12:29 42.46911 8.21115 23480 ft 418 kts 330°
2026-05-07 12:29 42.49587 8.19498 23959 ft 420 kts 330°
2026-05-07 12:30 42.52248 8.17889 24405 ft 423 kts 330°
2026-05-07 12:30 42.54944 8.16258 24846 ft 425 kts 330°
2026-05-07 12:30 42.57643 8.14622 25248 ft 428 kts 330°
2026-05-07 12:30 42.60370 8.12969 25652 ft 431 kts 330°
2026-05-07 12:31 42.63099 8.11312 26027 ft 434 kts 330°
2026-05-07 12:31 42.65870 8.09627 26397 ft 436 kts 330°
2026-05-07 12:31 42.68607 8.07962 26752 ft 439 kts 330°
2026-05-07 12:31 42.71411 8.06255 27113 ft 441 kts 330°
2026-05-07 12:32 42.74239 8.04555 27443 ft 445 kts 331°
2026-05-07 12:32 42.77124 8.03087 27758 ft 451 kts 335°
2026-05-07 12:32 42.80168 8.01883 28092 ft 456 kts 340°
2026-05-07 12:32 42.83264 8.00976 28407 ft 460 kts 343°
2026-05-07 12:33 42.89592 7.99371 29021 ft 464 kts 343°
2026-05-07 12:33 42.92768 7.98578 29330 ft 465 kts 343°
2026-05-07 12:33 42.95903 7.97792 29695 ft 464 kts 343°
2026-05-07 12:34 42.99066 7.96994 30049 ft 464 kts 343°
2026-05-07 12:34 43.02251 7.96186 30442 ft 463 kts 342°
2026-05-07 12:34 43.05408 7.95383 30820 ft 462 kts 342°
2026-05-07 12:34 43.08577 7.94572 31210 ft 461 kts 342°
2026-05-07 12:35 43.11726 7.93766 31594 ft 460 kts 342°
2026-05-07 12:35 43.14833 7.92970 31964 ft 459 kts 342°
2026-05-07 12:35 43.17985 7.92162 32319 ft 458 kts 342°
2026-05-07 12:35 43.21101 7.91362 32580 ft 458 kts 342°
2026-05-07 12:36 43.24248 7.90550 32789 ft 460 kts 342°
2026-05-07 12:36 43.27356 7.89748 32999 ft 461 kts 342°
2026-05-07 12:36 43.30533 7.88928 33220 ft 461 kts 342°
2026-05-07 12:36 43.33665 7.88121 33419 ft 462 kts 342°
2026-05-07 12:37 43.36824 7.87305 33619 ft 463 kts 342°
2026-05-07 12:37 43.39962 7.86494 33814 ft 463 kts 342°
2026-05-07 12:37 43.43137 7.85673 33940 ft 464 kts 342°
2026-05-07 12:37 43.46299 7.84854 33947 ft 464 kts 342°
2026-05-07 12:38 43.52620 7.83214 33949 ft 464 kts 342°
2026-05-07 12:38 43.58941 7.81571 33942 ft 463 kts 342°
2026-05-07 12:39 43.65252 7.79925 33951 ft 463 kts 342°
2026-05-07 12:39 43.71598 7.78266 33939 ft 464 kts 342°
2026-05-07 12:40 43.77928 7.76609 33940 ft 463 kts 342°
2026-05-07 12:40 43.84311 7.75340 33955 ft 467 kts 348°
2026-05-07 12:41 43.90784 7.74688 33965 ft 468 kts 349°
2026-05-07 12:41 43.97280 7.74096 33964 ft 468 kts 349°
2026-05-07 12:42 44.03768 7.73493 33970 ft 468 kts 349°
2026-05-07 12:42 44.10236 7.72886 33964 ft 467 kts 349°
2026-05-07 12:43 44.16685 7.72274 33970 ft 467 kts 349°
2026-05-07 12:43 44.23157 7.71658 33970 ft 467 kts 349°
2026-05-07 12:44 44.29617 7.71041 33983 ft 466 kts 349°
2026-05-07 12:44 44.36067 7.70422 33980 ft 466 kts 349°
2026-05-07 12:45 44.42541 7.69801 33981 ft 465 kts 349°
2026-05-07 12:45 44.48979 7.69181 33962 ft 465 kts 349°
2026-05-07 12:46 44.55421 7.68562 33960 ft 465 kts 349°
2026-05-07 12:46 44.61830 7.67943 33955 ft 464 kts 349°
2026-05-07 12:47 44.68301 7.67316 33947 ft 464 kts 349°
2026-05-07 12:47 44.74699 7.66696 33947 ft 463 kts 349°
2026-05-07 12:48 44.81096 7.66075 33941 ft 463 kts 349°
2026-05-07 12:48 44.87505 7.65449 33937 ft 463 kts 349°
2026-05-07 12:49 44.93931 7.64821 33949 ft 463 kts 349°
2026-05-07 12:49 45.00355 7.64192 33943 ft 463 kts 349°
2026-05-07 12:50 45.06772 7.63563 33951 ft 462 kts 349°
2026-05-07 12:50 45.13161 7.62933 33952 ft 462 kts 349°
2026-05-07 12:51 45.19585 7.62301 33956 ft 462 kts 349°
2026-05-07 12:51 45.25944 7.61672 33953 ft 461 kts 350°
2026-05-07 12:52 45.32324 7.61041 33965 ft 461 kts 350°
2026-05-07 12:52 45.38734 7.60403 33965 ft 460 kts 350°
2026-05-07 12:53 45.45092 7.59771 33977 ft 459 kts 350°
2026-05-07 12:53 45.51463 7.59139 33999 ft 459 kts 350°
2026-05-07 12:54 45.57791 7.58505 34004 ft 457 kts 350°
2026-05-07 12:54 45.64118 7.57873 33999 ft 458 kts 350°
2026-05-07 12:55 45.70456 7.57234 34005 ft 458 kts 351°
2026-05-07 12:55 45.76800 7.56597 33999 ft 458 kts 351°
2026-05-07 12:56 45.83131 7.55957 34008 ft 457 kts 351°
2026-05-07 12:56 45.89496 7.55314 34030 ft 457 kts 351°
2026-05-07 12:57 45.95806 7.54684 34023 ft 456 kts 352°
2026-05-07 12:57 46.02175 7.54528 34021 ft 459 kts 355°
2026-05-07 12:58 46.08525 7.54550 34031 ft 459 kts 355°
2026-05-07 12:58 46.14939 7.54573 34044 ft 459 kts 355°
2026-05-07 12:59 46.21306 7.54589 34044 ft 458 kts 355°
2026-05-07 12:59 46.27654 7.54598 34033 ft 458 kts 355°
2026-05-07 13:00 46.34034 7.54610 34031 ft 458 kts 355°
2026-05-07 13:00 46.40370 7.54619 34021 ft 457 kts 356°
2026-05-07 13:01 46.46717 7.54627 34000 ft 457 kts 356°
2026-05-07 13:01 46.53065 7.54635 33992 ft 457 kts 356°
2026-05-07 13:02 46.59392 7.54643 33983 ft 457 kts 356°
2026-05-07 13:02 46.65772 7.54654 33997 ft 457 kts 356°
2026-05-07 13:03 46.72091 7.54662 34006 ft 457 kts 356°
2026-05-07 13:03 46.78447 7.54670 34004 ft 458 kts 356°
2026-05-07 13:04 46.84791 7.54681 33996 ft 457 kts 356°
2026-05-07 13:04 46.91151 7.54688 34006 ft 457 kts 356°
2026-05-07 13:05 46.97480 7.54697 33995 ft 456 kts 356°
2026-05-07 13:05 47.03831 7.54707 34002 ft 457 kts 356°
2026-05-07 13:06 47.10043 7.54714 34005 ft 456 kts 357°
2026-05-07 13:06 47.16505 7.54723 34010 ft 457 kts 357°
2026-05-07 13:07 47.22843 7.54733 34020 ft 457 kts 357°
2026-05-07 13:07 47.29172 7.54742 34015 ft 457 kts 357°
2026-05-07 13:08 47.35514 7.54753 34003 ft 457 kts 357°
2026-05-07 13:08 47.41859 7.54762 34002 ft 457 kts 357°
2026-05-07 13:09 47.48169 7.54770 34003 ft 456 kts 357°
2026-05-07 13:09 47.54528 7.54772 33998 ft 456 kts 357°
2026-05-07 13:10 47.60860 7.54774 34012 ft 456 kts 357°
2026-05-07 13:10 47.67148 7.54610 34003 ft 454 kts 353°
2026-05-07 13:11 47.73406 7.53384 34004 ft 452 kts 346°
2026-05-07 13:11 47.79404 7.51003 33994 ft 449 kts 339°
2026-05-07 13:12 47.85179 7.47577 33993 ft 448 kts 335°
2026-05-07 13:12 47.90898 7.43850 33988 ft 448 kts 334°
2026-05-07 13:13 47.96561 7.40151 33996 ft 447 kts 335°
2026-05-07 13:13 48.02262 7.36429 33990 ft 447 kts 335°
2026-05-07 13:14 48.07935 7.32721 34002 ft 447 kts 334°
2026-05-07 13:14 48.13645 7.28981 34000 ft 447 kts 334°
2026-05-07 13:15 48.19320 7.25257 33998 ft 448 kts 334°
2026-05-07 13:15 48.25030 7.21500 33996 ft 447 kts 334°
2026-05-07 13:16 48.30707 7.17757 33992 ft 447 kts 334°
2026-05-07 13:16 48.36373 7.14009 33989 ft 446 kts 334°
2026-05-07 13:17 48.42041 7.10252 33988 ft 446 kts 334°
2026-05-07 13:17 48.47711 7.06485 33997 ft 447 kts 334°
2026-05-07 13:18 48.53356 7.02726 33988 ft 447 kts 334°
2026-05-07 13:18 48.59055 6.98921 33997 ft 448 kts 334°
2026-05-07 13:19 48.64741 6.95115 34001 ft 447 kts 335°
2026-05-07 13:19 48.70401 6.91316 34006 ft 447 kts 335°
2026-05-07 13:20 48.76060 6.87510 34013 ft 448 kts 335°
2026-05-07 13:20 48.81767 6.83662 34016 ft 448 kts 335°
2026-05-07 13:21 48.87456 6.79817 34017 ft 449 kts 335°
2026-05-07 13:21 48.93147 6.75960 34017 ft 448 kts 335°
2026-05-07 13:22 48.98818 6.72107 34018 ft 448 kts 335°
2026-05-07 13:22 49.04490 6.68243 34023 ft 448 kts 335°
2026-05-07 13:23 49.10009 6.64475 34020 ft 448 kts 335°
2026-05-07 13:23 49.15746 6.60546 34019 ft 448 kts 335°
2026-05-07 13:24 49.21406 6.56662 34017 ft 448 kts 335°
2026-05-07 13:24 49.27079 6.52759 34020 ft 448 kts 335°
2026-05-07 13:25 49.32747 6.48848 34023 ft 448 kts 335°
2026-05-07 13:25 49.38421 6.44923 34030 ft 448 kts 335°
2026-05-07 13:26 49.44086 6.40991 34027 ft 448 kts 335°
2026-05-07 13:26 49.49758 6.37153 34023 ft 448 kts 336°
2026-05-07 13:27 49.55503 6.33491 34028 ft 448 kts 336°
2026-05-07 13:27 49.61256 6.29793 34028 ft 447 kts 336°
2026-05-07 13:28 49.66969 6.26041 34037 ft 447 kts 335°
2026-05-07 13:28 49.72651 6.22182 34031 ft 447 kts 335°
2026-05-07 13:29 49.78331 6.18315 34029 ft 448 kts 335°
2026-05-07 13:29 49.84003 6.14456 34023 ft 448 kts 335°
2026-05-07 13:30 49.89799 6.10886 34020 ft 448 kts 339°
2026-05-07 13:30 49.95649 6.07557 34009 ft 448 kts 339°
2026-05-07 13:31 50.01483 6.04227 33996 ft 449 kts 339°
2026-05-07 13:31 50.07314 6.00878 33994 ft 449 kts 339°
2026-05-07 13:32 50.13161 5.97516 33997 ft 448 kts 339°
2026-05-07 13:32 50.18729 5.94306 34000 ft 448 kts 338°
2026-05-07 13:33 50.24554 5.90936 33997 ft 449 kts 338°
2026-05-07 13:33 50.30440 5.87520 33996 ft 450 kts 338°
2026-05-07 13:34 50.39205 5.82416 34001 ft 450 kts 338°
2026-05-07 13:35 50.45071 5.78988 34006 ft 450 kts 338°
2026-05-07 13:35 50.50944 5.75546 34013 ft 451 kts 338°
2026-05-07 13:36 50.56633 5.71644 33930 ft 446 kts 322°
2026-05-07 13:36 50.58757 5.68221 33565 ft 440 kts 303°
2026-05-07 13:36 50.60004 5.63910 32712 ft 437 kts 283°
2026-05-07 13:36 50.60233 5.59201 31356 ft 437 kts 262°
2026-05-07 13:37 50.59491 5.54636 30560 ft 422 kts 254°
2026-05-07 13:37 50.58746 5.50331 29835 ft 407 kts 257°
2026-05-07 13:37 50.58191 5.46014 29160 ft 392 kts 261°
2026-05-07 13:37 50.57807 5.41904 28538 ft 378 kts 263°
2026-05-07 13:38 50.57524 5.37904 27850 ft 367 kts 264°
2026-05-07 13:38 50.57297 5.33979 27038 ft 361 kts 265°
2026-05-07 13:38 50.57103 5.30084 26174 ft 356 kts 265°
2026-05-07 13:38 50.56934 5.26371 25342 ft 352 kts 265°
2026-05-07 13:39 50.56771 5.22603 24493 ft 348 kts 266°
2026-05-07 13:39 50.56612 5.18814 23644 ft 343 kts 266°
2026-05-07 13:39 50.56483 5.15135 22841 ft 339 kts 270°
2026-05-07 13:39 50.56920 5.11536 22028 ft 336 kts 293°
2026-05-07 13:40 50.58172 5.08548 21255 ft 335 kts 315°
2026-05-07 13:40 50.60087 5.06516 20463 ft 335 kts 337°
2026-05-07 13:40 50.62360 5.05765 19457 ft 340 kts 359°
2026-05-07 13:40 50.64661 5.06433 18426 ft 344 kts 21°
2026-05-07 13:41 50.66663 5.08446 17395 ft 347 kts 44°
2026-05-07 13:41 50.68039 5.11492 16372 ft 348 kts 66°
2026-05-07 13:41 50.68629 5.15129 15364 ft 346 kts 83°
2026-05-07 13:41 50.68805 5.18790 14767 ft 332 kts 87°
2026-05-07 13:42 50.68905 5.22383 14166 ft 322 kts 87°
2026-05-07 13:42 50.68984 5.25845 13528 ft 313 kts 88°
2026-05-07 13:42 50.69059 5.29215 12898 ft 306 kts 88°
2026-05-07 13:42 50.69134 5.32525 12270 ft 301 kts 88°
2026-05-07 13:43 50.69211 5.35756 11646 ft 298 kts 88°
2026-05-07 13:43 50.69289 5.39004 11015 ft 295 kts 88°
2026-05-07 13:43 50.69364 5.42198 10393 ft 295 kts 88°
2026-05-07 13:43 50.69438 5.45448 9804 ft 298 kts 87°
2026-05-07 13:44 50.69284 5.48618 9701 ft 288 kts 108°
2026-05-07 13:44 50.68317 5.51349 9584 ft 287 kts 131°
2026-05-07 13:44 50.66752 5.53179 9458 ft 286 kts 157°
2026-05-07 13:44 50.64809 5.53742 9331 ft 287 kts 184°
2026-05-07 13:45 50.62897 5.52878 9203 ft 287 kts 211°
2026-05-07 13:45 50.61449 5.50801 9081 ft 285 kts 236°
2026-05-07 13:45 50.60712 5.47954 8959 ft 285 kts 260°
2026-05-07 13:45 50.60465 5.44856 8841 ft 285 kts 263°
2026-05-07 13:46 50.60251 5.41749 8715 ft 284 kts 263°
2026-05-07 13:46 50.60029 5.38686 8589 ft 283 kts 263°
2026-05-07 13:46 50.59796 5.35606 8466 ft 283 kts 263°
2026-05-07 13:46 50.59560 5.32566 8321 ft 282 kts 263°
2026-05-07 13:47 50.59316 5.29508 8155 ft 282 kts 263°
2026-05-07 13:47 50.59068 5.26438 7976 ft 281 kts 263°
2026-05-07 13:47 50.58820 5.23399 7717 ft 280 kts 263°
2026-05-07 13:47 50.58571 5.20367 7412 ft 279 kts 263°
2026-05-07 13:48 50.58323 5.17374 7093 ft 278 kts 263°
2026-05-07 13:48 50.58076 5.14395 6762 ft 276 kts 263°
2026-05-07 13:48 50.57828 5.11425 6432 ft 274 kts 263°
2026-05-07 13:48 50.57578 5.08443 6106 ft 272 kts 263°
2026-05-07 13:49 50.57332 5.05504 5781 ft 271 kts 263°
2026-05-07 13:49 50.57087 5.02602 5466 ft 269 kts 263°
2026-05-07 13:49 50.56842 4.99701 5155 ft 267 kts 263°
2026-05-07 13:49 50.56599 4.96849 4844 ft 265 kts 263°
2026-05-07 13:50 50.56353 4.93959 4530 ft 264 kts 263°
2026-05-07 13:50 50.56114 4.91157 4226 ft 262 kts 263°
2026-05-07 13:50 50.55869 4.88298 3907 ft 261 kts 263°
2026-05-07 13:50 50.55629 4.85504 3602 ft 259 kts 263°
2026-05-07 13:51 50.55389 4.82713 3297 ft 257 kts 263°
2026-05-07 13:51 50.55151 4.79962 3017 ft 254 kts 263°
2026-05-07 13:51 50.54896 4.77270 2939 ft 242 kts 259°
2026-05-07 13:51 50.54448 4.74784 2938 ft 233 kts 251°
2026-05-07 13:52 50.53872 4.72423 2942 ft 230 kts 248°
2026-05-07 13:52 50.53252 4.70155 2945 ft 228 kts 247°
2026-05-07 13:52 50.52592 4.67886 2949 ft 229 kts 246°
2026-05-07 13:52 50.51918 4.65609 2949 ft 229 kts 246°
2026-05-07 13:53 50.51252 4.63354 2804 ft 229 kts 246°
2026-05-07 13:53 50.50583 4.61071 2508 ft 229 kts 246°
2026-05-07 13:53 50.49921 4.58806 2205 ft 229 kts 246°
2026-05-07 13:53 50.49275 4.56588 1900 ft 219 kts 245°
2026-05-07 13:54 50.48659 4.54479 1616 ft 208 kts 246°
2026-05-07 13:54 50.48084 4.52507 1439 ft 191 kts 246°
2026-05-07 13:54 50.47552 4.50679 1164 ft 179 kts 246°
2026-05-07 13:54 50.47056 4.48972 897 ft 165 kts 245°
2026-05-07 13:55 50.46596 4.47420 663 ft 151 kts 246°
2026-05-07 13:55 50.46194 4.46005 606 ft 131 kts 246°
2026-05-07 13:55 50.45860 4.44861 616 ft 91 kts 245°
2026-05-07 13:55 50.45716 4.44352 616 ft 30 kts 246°
2026-05-07 13:56 50.45641 4.44081 617 ft 17 kts 253°
2026-05-07 13:56 50.45670 4.43992 617 ft 9 kts
2026-05-07 13:56 50.45723 4.44048 616 ft 9 kts 47°
2026-05-07 13:56 50.45763 4.44128 616 ft 9 kts 53°
2026-05-07 13:57 50.45804 4.44213 616 ft 9 kts 53°
2026-05-07 13:57 50.45848 4.44302 616 ft 10 kts 53°
2026-05-07 13:57 50.45894 4.44399 616 ft 11 kts 53°
2026-05-07 13:57 50.45935 4.44504 616 ft 11 kts 64°
2026-05-07 13:58 50.45970 4.44621 616 ft 12 kts 66°
2026-05-07 13:58 50.46005 4.44744 616 ft 12 kts 66°
2026-05-07 13:58 50.46040 4.44866 616 ft 12 kts 65°
2026-05-07 13:58 50.46079 4.44989 616 ft 12 kts 64°
2026-05-07 13:59 50.46117 4.45114 616 ft 12 kts 65°
2026-05-07 13:59 50.46156 4.45247 616 ft 13 kts 66°
2026-05-07 13:59 50.46197 4.45389 615 ft 15 kts 65°
2026-05-07 13:59 50.46245 4.45550 613 ft 17 kts 66°
2026-05-07 14:00 50.46299 4.45736 610 ft 20 kts 66°
2026-05-07 14:00 50.46365 4.45951 605 ft 23 kts 65°
2026-05-07 14:00 50.46437 4.46197 601 ft 26 kts 66°
2026-05-07 14:00 50.46511 4.46476 594 ft 29 kts 66°
2026-05-07 14:01 50.46592 4.46750 589 ft 17 kts 57°
2026-05-07 14:01 50.46684 4.46786 588 ft 12 kts 14°
2026-05-07 14:01 50.46731 4.46884 587 ft 8 kts 51°
2026-05-07 14:01 50.46778 4.46892 586 ft 4 kts 340°
2026-05-07 14:02 50.46805 4.46874 586 ft 2 kts 336°
2026-05-07 14:02 50.46809 4.46871 586 ft 0 kts 336°